Regional Weather Roundup
Issued by NWS

Home | Current Version | Previous Version | Text Only | Print | Product List | Glossary On
Versions: 1 2 3 4 5 6 7 8 9 10 11 12 13 14 15 16 17 18 19 20 21 22 23 24 25 26 27 28 29 30 31 32 33 34 35 36 37 38 39 40 41 42 43 44 45 46 47 48 49 50
000
ASCA42 TJSJ 242110
RWRPR
PUERTO RICO/U.S. VIRGIN ISLANDS HOURLY WEATHER ROUNDUP
NATIONAL WEATHER SERVICE SAN JUAN PR
500 PM AST WED AUG 24 2016

PRZ001>002-007>008-010-242200-
PUERTO RICO

CITY           SKY/WX    TMP DP  RH WIND       PRES   REMARKS
SAN JUAN LMM   LGT RAIN  81  79  94 SE3       29.82F
AGUADILLA        N/A     79  75  89 S3        29.83S
CEIBA          CLOUDY    84  75  74 S16G25    29.87R HX  92
$$

VIZ001>002-242200-
U.S. VIRGIN ISLANDS

CITY           SKY/WX    TMP DP  RH WIND       PRES   REMARKS
CHRISTIANSTED  MOSUNNY   84  75  74 S12G18    29.89S HX  92
$$

HOURLY WEATHER ROUNDUP FOR THE NEWS MEDIA

CITY           SKY/WX    TMP DP  RH WIND       PRES   REMARKS
ORLANDO        MOSUNNY   89  72  56 NE15      30.08S HX  96
NEW YORK       MOSUNNY   79  66  64 S20       30.19F
NEWARK         MOSUNNY   85  63  47 SE12G20   30.16F
CHICAGO        PTSUNNY   83  71  67 W14       29.91S
HARTFORD       SUNNY     82  62  50 S12       30.17F
BOSTON         MOSUNNY   78  64  61 SE12      30.14F
DALLAS         MOSUNNY   94  69  44 S21       30.04F HX  99
PHILADELPHIA   MOSUNNY   85  59  41 SW8       30.20F
LOS ANGELES    SUNNY     73  62  68 W13       29.99F
WASHINGTON DC  PTSUNNY   84  65  52 S9        30.19F


USA.gov is the U.S. government's official web portal to all federal, state and local government web resources and services.